Погода в Кабале

Погода в Кабале : погода сейчас, прогноз погоды и архив. Всё, что Вы хотите узнать о погоде в Кабале!

Поиск расширенной информации на нашем сайте:

Полезная информация: Цветы в шляпных коробках цветы в шляпных коробках. 3

Другие новости

Новости СМИ2

Главная страница сайта

Новости сайта

03.07.2017

Напоминаем, что на нашем специализированном сайте Метеоцентр.Азия вы можете получить высокодетализированные автоматические прогнозы погоды по пунктам России, СНГ и мира в авиационном формате (включающие направление и скорость ветра, видимость, явления погоды, количество и форму облачности, нижнюю и верхнюю границу облачности).

Рекомендуем: У нас товары для похудения приобрести реально выгодно!

Погода в Кабале - сегодня

Время (UTC), дата Ветер
(°,м/с) 
Видим.   Явления Облачность Т
(°С)
Тd
(°С)
f(%) Тe
(°С)
Pmin
(гПа)
dP
(гПа)
Po
(мм)
O2
(г/м3)
Тmin Tmax R s Состояние
почвы
09 19.08.17 200 (Ю) 20000 м    8/8 1000 м 
[Sc]
+30 +13.5 36 +38  1013.9  705  253           
12 19.08.17 230 (ЮЗ) 20000 м    3/3 1000 м 
[Sc]
+31.3 +12 31 +37  1012.5  -1  704  252           
15 19.08.17 200 (Ю) 20000 м    3/3 1000 м 
[Sc]
+28.9 +12.1 35 +34  1013.4  0.1  704  254           
18 19.08.17 050 (СВ) 20000 м    ясно 
+24 +7.1 34 +24  1016.5  1.7  706  260    +31.7       
21 19.08.17 050 (СВ) 20000 м    ясно 
+22.9 +6.8 35 +23  1017  0.2  706  261           
00 20.08.17 050 (СВ) 20000 м    ясно 
+22.6 +5 32 +23  1016.8  -0.3  705  262           
03 20.08.17 020 (С) 20000 м    3/0 средняя 
[Ac trans]
+22.2 +4.5 31 +22  1017.2  0.3  706  262           
06 20.08.17 140 (ЮВ) 20000 м    ясно 
+21.9 +11.8 53 +27  1017.4  0.3  706  261           
09 20.08.17 180 (Ю) 20000 м    4/0 средняя 
[Ac trans]
+30.7 +11.2 30 +35  1014.3  -0.8  705  253           
12 20.08.17 180 (Ю) 20000 м    3/0 средняя 
[Ac trans]
+33.5 +13.9 31 +42  1011.8  -1.6  704  250           
15 20.08.17 180 (Ю) 20000 м    ясно 
+30.4 +11.3 31 +35  1012.6  -0.1  704  253           
21 20.08.17 360 (С) 20000 м    ясно 
+23.9 +11.3 45 +28  1015.3  0.1  705  259           
00 21.08.17 360 (С) 20000 м    ясно 
+23.5 +10.7 44 +27  1013.1  -2.1  703  259           
03 21.08.17 360 (С) 20000 м    4/0 средняя 
[Ac trans]
+21.9 +9.7 46 +24  1013.3  -0.1  703  260           
06 21.08.17 080 (В) 20000 м    4/4 1000 м 
[Sc]
+26.7 +15.6 51 +38  1013.2  1.1  704  255           
09 21.08.17 200 (Ю) 20000 м    3/0 средняя 
[Ac trans]
+31.7 +18.8 46 +50  1010  -1.7  703  249           
12 21.08.17 180 (Ю) 20000 м    ясно 
+32.9 +19.5 45 +53  1008  -1.5  701  248           
15 21.08.17 160 (Ю) 20000 м    ясно 
+30.3 +17.3 46 +45  1008.7  701  251           
21 21.08.17 090 (В) 20000 м    ясно 
+24.8 +11.9 44 +30  1010.6  -1  701  257           
00 22.08.17 050 (СВ) 20000 м    ясно 
+23.8 +10.6 43 +27  1010.1  0.2  701  258           
03 22.08.17 360 (С) 20000 м    ясно 
+22.7 +10.4 46 +26  1010.5  0.1  701  259           
06 22.08.17 020 (С) 20000 м    ясно 
+27.3 +8.9 31 +28  1009.3  701  255           
09 22.08.17 180 (Ю) 20000 м    ясно 
+32.3 +5.5 19 +32  1007.9  -0.2  701  252           
12 22.08.17 180 (Ю) 20000 м    ясно 
+33.3 +7.8 21 +33  1006.4  -1.2  700  250           
15 22.08.17 180 (Ю) 20000 м    ясно 
+31.7 +7.8 23 +32  1006.4  -0.3  700  251           
Время (UTC), дата Ветер
(°,м/с) 
Видим.   Явления Облачность Т
(°С)
Тd
(°С)
f(%) Тe
(°С)
Pmin
(гПа)
dP
(гПа)
Po
(мм)
O2
(г/м3)
Тmin Tmax R s Состояние
почвы

Для получения пояснительной информации подведите курсор к названию столбца.

ПОГОДА в Кабале - архив

Всё, что Вы хотите узнать о погоде в Кабале - удобно и подробно!

Выберите нужную дату (начиная с 1 января 2015* года) и нажмите кнопку "Найти".
Будут отображены архивные сводки погоды по пункту Кабала, начиная с указанной даты.


Отображать данные в формате CSV (для использования в таблицах Excel)


Внимание! Наш архив погоды предназначен исключительно для личного некоммерческого использования в познавательных целях. Если Вам необходимы официальные справки о состоянии погоды (для производственных, юридических, коммерческих и т.п. целей), обращайтесь в органы Росгидромета.

*Примечание: данная дата относится к архиву по метеостанциям СССР (Россия, СНГ, Балтия).
Архив по метеостанциям Зарубежной Европы и Азии (кроме Китая) хранится 10 дней, по другим регионам земного шара (Китай, Африка, Америка, Австралия, Океания) - 1 день.

Кабала - район местоположения метеостанции


Название, широта, долгота, высота метеостанции:
Кабала 41°ш. 47.9°д. 682 м над ур. моря [Азербайджан]

Дополнительная информация

В oтличие oт бoльшинства пoгoдных сайтoв мы публикуем пoдрoбную метеoинфoрмацию в детальнoм прoфессиoнальнoм фoрмате.

Характеристики температуры и влажнoсти вoздуха измеряются на высoте 2 м в тени вдали oт зданий и деревьев.
Скoрoсть ветра измеряется на высoте 10 м (на урoвне рoста челoвека скoрoсть ветра ниже в 1.5-2 раза). Если метеoстанция нахoдится в гoрoде или в лесу, тo скoрoсть ветра занижена на 2-4 м/с пo сравнению с oткрытым местoм. Скoрoсть ветра над акватoриями крупных рек и oзёр, а также на вершинах хoлмoв на 2-5 м/с выше, чем в oбычных услoвиях.
Атмoсфернoе давление в разных тoчках местнoсти мoжет значительнo oтличаться oт давления на метеoстанции, в зависимoсти oт услoвий рельефа (при пoдъёме на 10 м давление пoнижается примернo на 1 мм рт.ст.).